| time (UTC) | temp C | wind direction | speed KPH | gust KPH | rain 1hr cm | rain 24hr cm | rain mn cm | humidity % | barometer mb |
| 20260509124511 | 11 | 65 | 6.4 | 19.3 | 0.00 | 0.00 | 0.00 | 100 | 980.0 |
| 20260509123007 | 11 | 53 | 8.0 | 14.5 | 0.00 | 0.00 | 0.00 | 100 | 980.0 |
| 20260509121502 | 10 | 41 | 4.8 | 14.5 | 0.00 | 0.00 | 0.00 | 100 | 979.9 |
| 20260509120107 | 10 | 73 | 3.2 | 9.7 | 0.00 | 0.00 | 0.00 | 100 | 980.0 |
| 20260509114601 | 10 | 56 | 4.8 | 12.9 | 0.00 | 0.00 | 0.00 | 100 | 979.9 |
| 20260509113047 | 10 | 43 | 6.4 | 14.5 | 0.00 | 0.00 | 0.00 | 100 | 979.3 |
| 20260509111543 | 10 | 44 | 1.6 | 9.7 | 0.00 | 0.00 | 0.00 | 100 | 979.4 |
| 20260509110039 | 10 | 44 | 1.6 | 11.3 | 0.00 | 0.00 | 0.00 | 100 | 979.4 |
| 20260509104532 | 10 | 41 | 1.6 | 12.9 | 0.00 | 0.00 | 0.00 | 100 | 979.5 |
| 20260509103027 | 10 | 56 | 3.2 | 16.1 | 0.00 | 0.00 | 0.00 | 100 | 979.4 |
| 20260509101524 | 10 | 56 | 4.8 | 14.5 | 0.00 | 0.00 | 0.00 | 100 | 979.5 |
| 20260509100019 | 10 | 60 | 1.6 | 8.0 | 0.00 | 0.00 | 0.00 | 100 | 979.7 |
| 20260509094511 | 10 | 45 | 1.6 | 11.3 | 0.00 | 0.00 | 0.00 | 100 | 979.7 |
| 20260509093007 | 10 | 56 | 3.2 | 11.3 | 0.00 | 0.00 | 0.00 | 100 | 980.1 |
| 20260509091502 | 10 | 68 | 1.6 | 12.9 | 0.00 | 0.00 | 0.00 | 100 | 979.8 |
| 20260509090120 | 10 | 68 | 3.2 | 11.3 | 0.00 | 0.00 | 0.00 | 100 | 979.8 |
| 20260509084552 | 10 | 70 | 3.2 | 8.0 | 0.00 | 0.00 | 0.00 | 100 | 979.9 |
| 20260509083053 | 10 | 70 | 3.2 | 8.0 | 0.00 | 0.00 | 0.00 | 100 | 979.8 |
| 20260509081543 | 10 | 70 | 3.2 | 8.0 | 0.00 | 0.00 | 0.00 | 100 | 979.7 |
| 20260509080055 | 10 | 72 | 1.6 | 11.3 | 0.00 | 0.00 | 0.00 | 100 | 979.9 |
| 20260509074508 | 10 | 73 | 3.2 | 11.3 | 0.00 | 0.00 | 0.00 | 100 | 979.9 |
| 20260509073115 | 10 | 77 | 1.6 | 6.4 | 0.00 | 0.00 | 0.00 | 100 | 980.2 |
| 20260509071553 | 11 | 75 | 4.8 | 11.3 | 0.00 | 0.00 | 0.00 | 100 | 980.3 |
| 20260509070055 | 11 | 70 | 1.6 | 6.4 | 0.00 | 0.00 | 0.00 | 100 | 980.4 |
| 20260509064545 | 11 | 71 | 1.6 | 6.4 | 0.00 | 0.00 | 0.00 | 100 | 980.6 |
| 20260509063047 | 11 | 71 | 0.0 | 8.0 | 0.00 | 0.00 | 0.00 | 100 | 980.5 |
| 20260509061533 | 11 | 72 | 1.6 | 14.5 | 0.00 | 0.00 | 0.00 | 100 | 980.7 |
| 20260509060029 | 11 | 75 | 4.8 | 14.5 | 0.00 | 0.00 | 0.00 | 100 | 981.0 |
| 20260509054525 | 11 | 61 | 3.2 | 12.9 | 0.00 | 0.00 | 0.00 | 100 | 981.0 |
| 20260509053032 | 12 | 57 | 3.2 | 14.5 | 0.00 | 0.00 | 0.00 | 100 | 980.9 |
| 20260509051513 | 12 | 68 | 1.6 | 3.2 | 0.00 | 0.00 | 0.00 | 100 | 980.9 |
| 20260509050032 | 12 | 52 | 1.6 | 12.9 | 0.00 | 0.00 | 0.00 | 100 | 980.9 |
| 20260509044505 | 12 | 42 | 6.4 | 12.9 | 0.00 | 0.00 | 0.00 | 100 | 981.1 |
| 20260509043002 | 12 | 48 | 1.6 | 14.5 | 0.00 | 0.00 | 0.00 | 100 | 981.2 |
| 20260509041554 | 13 | 62 | 1.6 | 11.3 | 0.00 | 0.00 | 0.00 | 100 | 981.3 |
| 20260509040050 | 13 | 52 | 4.8 | 17.7 | 0.00 | 0.00 | 0.00 | 100 | 981.3 |
| 20260509034546 | 13 | 66 | 4.8 | 14.5 | 0.00 | 0.00 | 0.00 | 100 | 981.4 |
| 20260509033057 | 13 | 69 | 3.2 | 12.9 | 0.00 | 0.00 | 0.00 | 100 | 981.4 |
| 20260509031535 | 14 | 38 | 3.2 | 11.3 | 0.00 | 0.00 | 0.00 | 100 | 981.3 |
| 20260509030031 | 14 | 31 | 1.6 | 9.7 | 0.00 | 0.00 | 0.00 | 100 | 981.4 |
| 20260509024528 | 14 | 54 | 4.8 | 12.9 | 0.00 | 0.00 | 0.00 | 100 | 981.5 |
| 20260509023025 | 15 | 52 | 4.8 | 12.9 | 0.00 | 0.00 | 0.00 | 100 | 981.6 |
| 20260509021518 | 15 | 70 | 4.8 | 16.1 | 0.00 | 0.00 | 0.00 | 100 | 981.5 |
| 20260509020011 | 15 | 50 | 1.6 | 16.1 | 0.00 | 0.00 | 0.00 | 100 | 981.3 |
| 20260509014505 | 15 | 58 | 3.2 | 12.9 | 0.00 | 0.00 | 0.00 | 100 | 981.2 |
| 20260509013002 | 16 | 66 | 1.6 | 14.5 | 0.00 | 0.00 | 0.00 | 100 | 981.1 |
| 20260509011604 | 16 | 75 | 0.0 | 9.7 | 0.00 | 0.00 | 0.00 | 100 | 981.1 |
| 20260509010028 | 16 | 77 | 1.6 | 9.7 | 0.00 | 0.00 | 0.00 | 100 | 981.1 |
| 20260509004519 | 17 | 77 | 0.0 | 6.4 | 0.00 | 0.00 | 0.00 | 100 | 981.2 |
| 20260509003013 | 17 | 81 | 0.0 | 11.3 | 0.00 | 0.00 | 0.00 | 100 | 981.1 |
| 20260509001508 | 17 | 87 | 0.0 | 11.3 | 0.00 | 0.00 | 0.00 | 100 | 981.2 |
| 20260509000004 | 18 | 88 | 1.6 | 9.7 | 0.00 | 0.00 | 0.00 | 100 | 981.2 |
| 20260508234559 | 18 | 90 | 4.8 | 12.9 | 0.00 | 0.00 | 0.00 | 100 | 981.3 |
| 20260508233026 | 18 | 81 | 1.6 | 12.9 | 0.00 | 0.00 | 0.00 | 100 | 981.3 |
| 20260508231521 | 18 | 73 | 1.6 | 17.7 | 0.00 | 0.00 | 0.00 | 100 | 981.2 |
| 20260508230014 | 18 | 112 | 12.9 | 17.7 | 0.00 | 0.05 | 0.00 | 100 | 981.4 |
| 20260508224529 | 18 | 134 | 3.2 | 14.5 | 0.00 | 0.05 | 0.00 | 100 | 981.4 |
| 20260508223005 | 19 | 23 | 4.8 | 14.5 | 0.00 | 0.05 | 0.00 | 100 | 981.4 |
| 20260508221502 | 18 | 54 | 1.6 | 11.3 | 0.00 | 0.05 | 0.00 | 100 | 981.4 |
| 20260508220055 | 19 | 35 | 1.6 | 17.7 | 0.00 | 0.05 | 0.00 | 100 | 981.6 |
| 20260508214551 | 19 | 65 | 0.0 | 12.9 | 0.00 | 0.05 | 0.00 | 100 | 981.5 |
| 20260508213045 | 20 | 81 | 3.2 | 12.9 | 0.00 | 0.05 | 0.00 | 100 | 981.7 |
| 20260508211547 | 20 | 33 | 3.2 | 14.5 | 0.00 | 0.05 | 0.00 | 100 | 981.7 |
| 20260508210007 | 20 | 54 | 3.2 | 19.3 | 0.00 | 0.05 | 0.00 | 100 | 981.7 |
| 20260508204503 | 20 | 32 | 1.6 | 11.3 | 0.00 | 0.05 | 0.00 | 100 | 981.7 |
| 20260508203102 | 20 | 25 | 3.2 | 12.9 | 0.00 | 0.05 | 0.00 | 100 | 982.0 |
| 20260508201554 | 20 | 358 | 3.2 | 8.0 | 0.00 | 0.05 | 0.00 | 100 | 982.2 |
| 20260508200058 | 20 | 43 | 4.8 | 11.3 | 0.00 | 0.05 | 0.00 | 100 | 982.5 |
| 20260508194543 | 19 | 349 | 3.2 | 12.9 | 0.00 | 0.05 | 0.00 | 100 | 982.6 |
| 20260508193048 | 18 | 28 | 1.6 | 12.9 | 0.00 | 0.05 | 0.00 | 100 | 982.8 |
| 20260508191533 | 18 | 27 | 1.6 | 8.0 | 0.00 | 0.05 | 0.00 | 100 | 983.0 |
| 20260508190028 | 18 | 339 | 0.0 | 14.5 | 0.00 | 0.05 | 0.00 | 100 | 983.1 |
| 20260508184527 | 19 | 31 | 1.6 | 11.3 | 0.00 | 0.05 | 0.00 | 100 | 983.3 |
| 20260508183016 | 19 | 23 | 0.0 | 12.9 | 0.00 | 0.05 | 0.00 | 100 | 983.5 |
| 20260508181513 | 18 | 25 | 3.2 | 11.3 | 0.00 | 0.05 | 0.00 | 100 | 983.6 |
| 20260508180008 | 18 | 38 | 1.6 | 3.2 | 0.00 | 0.05 | 0.00 | 100 | 983.8 |
| 20260508174505 | 18 | 37 | 3.2 | 9.7 | 0.00 | 0.05 | 0.00 | 100 | 983.9 |
| 20260508173106 | 18 | 37 | 0.0 | 11.3 | 0.00 | 0.05 | 0.00 | 100 | 984.1 |
| 20260508171555 | 17 | 25 | 3.2 | 12.9 | 0.00 | 0.05 | 0.00 | 100 | 984.7 |
| 20260508170048 | 17 | 20 | 3.2 | 11.3 | 0.00 | 0.05 | 0.00 | 100 | 984.8 |
| 20260508164543 | 17 | 38 | 4.8 | 14.5 | 0.00 | 0.05 | 0.00 | 100 | 984.9 |
| 20260508163009 | 16 | 64 | 4.8 | 12.9 | 0.00 | 0.05 | 0.00 | 100 | 985.3 |
| 20260508161509 | 16 | 35 | 0.0 | 8.0 | 0.00 | 0.05 | 0.00 | 100 | 985.3 |
| 20260508154554 | 16 | 50 | 1.6 | 8.0 | 0.00 | 0.05 | 0.00 | 100 | 985.5 |
| 20260508153049 | 15 | 50 | 1.6 | 8.0 | 0.00 | 0.05 | 0.00 | 100 | 985.6 |
| 20260508151547 | 16 | 43 | 1.6 | 8.0 | 0.00 | 0.05 | 0.00 | 100 | 985.7 |
| 20260508150053 | 15 | 44 | 1.6 | 8.0 | 0.00 | 0.05 | 0.00 | 100 | 985.8 |
| 20260508144542 | 15 | 45 | 1.6 | 14.5 | 0.00 | 0.05 | 0.00 | 100 | 985.8 |
| 20260508143037 | 14 | 56 | 1.6 | 6.4 | 0.00 | 0.05 | 0.00 | 100 | 985.9 |
| 20260508141527 | 13 | 63 | 3.2 | 11.3 | 0.00 | 0.05 | 0.00 | 100 | 986.0 |
| 20260508140026 | 12 | 70 | 3.2 | 11.3 | 0.00 | 0.05 | 0.00 | 100 | 985.9 |
| 20260508134514 | 12 | 79 | 1.6 | 11.3 | 0.00 | 0.05 | 0.00 | 100 | 986.2 |
| 20260508133009 | 11 | 82 | 3.2 | 11.3 | 0.00 | 0.05 | 0.00 | 100 | 986.1 |
| 20260508131507 | 11 | 85 | 0.0 | 3.2 | 0.00 | 0.05 | 0.00 | 100 | 985.9 |
| 20260508130002 | 10 | 83 | 0.0 | 3.2 | 0.00 | 0.05 | 0.00 | 100 | 985.8 |